STARLINK-4595, 53627

Orbit data source: Space-Track

STARLINK-4595, 53627 is a payload satellite owned by SpaceX/Seattle (US) in LEO that was launched on Sun, 28 Aug 2022 UTC via an FALCON 9 launch vehicle from the Air Force Eastern Test Range (AFETR). Payload-class satellites include a variety of spacecraft equipped with specific instruments for various scientific and technological missions. These include communications satellites like Starlink; space stations such as the ISS; scientific satellites like the Hubble; Earth observation satellites from companies like Planet Labs, Umbra, and HawkEye 360; GPS; miniature CubeSats for education and research; and military/defense satellites.

Loading next visibility...
Identifier
53627, 2022-104AR
Orbit
LEO
Country
Flag of USUS
Related business
Manufacturer
SpaceX/Seattle
Mission
Operational Commercial Communications
Bus & Motor
STARLINK, Unknown motor
Mass
300 kg wet, ~290 kg dry
Launch date (UTC)
2022-08-28 (3 years ago)
Launch vehicle
FALCON 9
Launch site
Air Force Eastern Test Range (AFETR)
Object type
Payload
Rocket body
Debris
Shape & HBR
Box + 1 Pan, 10.1 m
Radar Cross Section
13.562 m², Large (>1 m²)

Expand to show TLE details & history
Last TLE update: 22 hours ago

TLE from 22 hours ago
0 STARLINK-4595
1 53627U 22104AR  25347.21110395 -.00000094  00000-0  12156-4 0  9998
2 53627  53.2172 262.0591 0001334  95.9737 264.1408 15.08831979182705
Epoch: 2025-12-13T05:03Z
TLE epoch observation values (Epoch: 2025-12-13T05:03:59.381Z)
Latitude
0.00005°
Longitude
103.92008°
Altitude
540.76 km
Speed
7.593 km/s
True Right ascension
17h 28m 14s
True Declination
0° 00' 00"
Sunlit
Object was in daylight at epoch
Visualization orbit readout
Latitude
Unknown
Longitude
Unknown
Altitude
Unknown
Speed
Unknown
Apparent Right ascension
Unknown
Apparent Declination
Unknown
Sunlit
N/A
Visualization observer readout
Local Sidereal Time
01:29:16
Azimuth
Unknown
Elevation
Unknown
Doppler factor
Unknown
Orbital elements
Apogee altitude
540.936 km
Perigee altitude
539.09 km
Semi-major axis
6,918.15 km
Eccentricity
0.00013
Inclination
53.2172°
RAAN
262.0591°
Arg. of periapsis
95.9737°
True anomaly
264.12559°
Mean anomaly
264.1408°
Eccentric anomaly
264.1332°
Mean motion
3.77188 °/min
Orbital period
95.44 mins
BSTAR
0.000012156
Loading maneuver chart data...
Computing Atmospheric mass density...
Loading historical data...
Loading historical data...
Loading historical data...
Loading historical data...
Loading historical data...
Loading historical data...
Loading historical data...

Documentation

Showing up to 5 results
|